Simultaneous Nadir Overpasses (SNOs) Predictions

Prediction of SNOs between AQUA and NPP Satellite Orbit:

Table of predicted SNOs for the next 14.0 days since TLE Epoch: 7/6/2018
Index Date (AQUA) Time (AQUA) Lat,Lon (AQUA) SZA (AQUA ) Date (NPP) Time (NPP) Lat,Lon (NPP) SZA (NPP ) Distance(km) Time Diff (sec)
1 07/09/2018 06:22:09 75.43, -38.08 76.26 07/09/2018 06:21:35 75.43, -38.06 76.28 0.80 34
2 07/09/2018 07:11:14 -76.56, 133.04 105.08 07/09/2018 07:11:56 -76.57, 133.12 105.13 2.19 42
3 07/11/2018 22:38:33 75.65, 78.43 76.36 07/11/2018 22:38:25 75.64, 78.38 76.38 1.64 8
4 07/11/2018 23:27:39 -76.73,-110.50 104.93 07/11/2018 23:28:47 -76.73,-110.49 104.98 0.21 68
5 07/14/2018 14:05:54 -74.73, 24.19 102.20 07/14/2018 14:04:54 -74.73, 24.13 102.13 1.94 60
6 07/14/2018 14:54:49 76.21,-163.98 76.09 07/14/2018 14:55:06 76.22,-163.91 76.06 2.20 17
7 07/17/2018 06:22:07 -75.50, 142.12 102.65 07/17/2018 06:21:32 -75.51, 142.20 102.64 2.23 35
8 07/17/2018 07:11:13 76.42, -47.41 76.28 07/17/2018 07:11:56 76.42, -47.40 76.24 0.41 43
9 07/19/2018 22:38:30 -75.76,-101.24 102.48 07/19/2018 22:38:21 -75.77,-101.21 102.48 1.04 9




NCC Satellite Simultaneous Nadir Overpasses (SNOs) Prediction Service
